www.pogodaiklimat.ru

Погода и климат >> Архив погоды >> Ирак >> Kut-Al-Hai


ПОГОДА в Kut-Al-Hai

  • Прогноз погоды в Kut-Al-Hai
  • Монитор погоды в Kut-Al-Hai
  • Климат города

АРХИВ ПОГОДЫ в Kut-Al-Hai

Время (UTC), дата Ветер
(напр.,м/с)
 
Видим.   Явления Облачность Т
(С)
Тd
(С)
f
(%)
Тe
(С)
Тes
(С)
Комфортность P
(гПа)
Po
(гПа)
Тmin
(С)
Tmax
(С)
R
(мм)
R24
(мм)
S
(см)
21 12.09 З 2 10 км ясно +32.6 +6.7 20 +31 +31 жарко 1007.4 1007.0
03 13.09 З 2 10 км ясно +31.0 +3.8 18 +29 +29 жарко 1006.2 1006.0
09 13.09 СЗ 12 6000 м пыльный позёмок ясно +45.8 -6.3 4 +41 +41 опасность
перегрева
1005.5 1006.0
12 13.09 СЗ 10 7000 м пыльный позёмок ясно +46.8 -5.9 4 +42 +43 опасность
перегрева
1003.6 1004.0
15 13.09 СЗ 7 7000 м пыльный позёмок ясно +43.0 +0.5 7 +39 +39 очень
жарко
1003.2 1003.0
18 13.09 СЗ 6 8000 м пыль ясно +38.4 +3.4 11 +35 +35 очень
жарко
1003.9 1004.0 +47.2
21 13.09 СЗ 4 8000 м пыль ясно +34.4 +4.4 15 +32 +32 жарко 1002.6 1003.0
00 14.09 СЗ 5 10 км ясно +30.8 +4.1 18 +29 +29 жарко 1001.8 1002.0
06 14.09 СЗ 5 10 км ясно +34.0 +6.7 18 +32 +36 жарко 1002.7 1003.0 +28.8
09 14.09 СЗ 3 10 км ясно +43.9 +3.2 8 +40 +54 опасность
солнечного
удара
1004.2 1004.0
12 14.09 СЗ 3 10 км ясно +47.0 +6.4 9 +44 +51 опасность
перегрева
1002.8 1003.0
15 14.09 СЗ 4 10 км ясно +42.5 +10.3 15 +41 +41 опасность
перегрева
1003.4 1003.0
18 14.09 СЗ 4 10 км ясно +37.3 +9.8 19 +36 +36 очень
жарко
1004.4 1004.0 +47.1
21 14.09 СЗ 3 10 км ясно +34.5 +8.6 20 +33 +33 жарко 1004.4 1004.0
00 15.09 СЗ 3 10 км ясно +32.1 +8.8 24 +31 +31 жарко 1003.8 1004.0
03 15.09 СЗ 5 10 км ясно +29.8 +9.3 28 +29 +29 жарко 1004.9 1005.0
06 15.09 СЗ 4 10 км ясно +35.2 +13.2 27 +36 +42 очень
жарко
1006.3 1006.0 +29.7
09 15.09 СЗ 6 7000 м пыль ясно +43.1 +13.7 18 +43 +50 опасность
перегрева
1005.7 1006.0
12 15.09 СЗ 5 10 км ясно +45.1 +11.1 14 +44 +48 опасность
перегрева
1004.8 1005.0
03 16.09 СЗ 5 10 км ясно +29.9 +6.9 24 +29 +29 жарко 997.2 997.0
15 16.09 С 5 10 км ясно +40.0 +10.6 17 +39 +39 очень
жарко
1005.8 1006.0
21 16.09 С 5 10 км ясно +32.8 +6.2 19 +31 +31 жарко 1006.1 1006.0
03 17.09 СЗ 3 10 км ясно +30.4 +7.5 24 +29 +29 жарко 1005.7 1006.0
09 17.09 СЗ 6 10 км ясно +42.9 +11.1 15 +42 +48 опасность
перегрева
1005.8 1006.0
15 17.09 З 2 10 км ясно +40.6 +16.2 24 +42 +42 опасность
перегрева
1004.8 1005.0
21 17.09 З 3 10 км ясно +33.2 +13.4 30 +34 +34 очень
жарко
1005.2 1005.0
09 18.09 СЗ 4 10 км ясно +44.0 +15.5 19 +45 +56 опасность
перегрева
1006.2 1006.0
15 18.09 СЗ 2 10 км ясно +40.6 +17.8 27 +44 +44 опасность
перегрева
1004.8 1005.0
21 18.09 СЗ 2 10 км ясно +32.4 +19.0 45 +38 +38 очень
душно
1005.5 1006.0
03 19.09 С 2 10 км 5/0
[Ac trans]
+28.4 +13.0 39 +30 +30 жарко 1006.7 1007.0
06 19.09 С 4 7000 м пыль 4/4 1050 м
[Sc]
+33.3 +23.6 57 +44 +48 опасность
перегрева
1008.2 1008.0 +27.4
09 19.09 Ю 3 10 км 1/0
[Ci fib]
+41.0 +19.6 29 +46 +58 опасность
перегрева
996.8 997.0
12 19.09 Ю 3 10 км 5/1 1050 м
[Cu hum Ac trans Ci fib]
+44.2 +12.2 15 +43 +48 опасность
перегрева
994.4 994.0

 

Местоположение метеостанции Kut-Al-Hai (Ирак): широта 32.17 долгота 46.05 высота над уровнем моря 15 м.

В архиве по умолчанию представлена погода в Kut-Al-Hai за последнюю неделю. Архивные данные за месяц целиком и за предыдущие месяцы, начиная с января 2011 года, Вы можете получить, выбрав интересующий диапазон дат из раскрывающегося списка и нажав кнопку "Ввод!".


*Определитесь, кто Вы:
робот инопланетянин человек

Внимание! Время в таблицах - всемирное. Для получения местного времени необходимо прибавить поправку, которая в Kut-Al-Hai равна 3 ч.

Смотрите также архив погоды в соседних городах и на ближайших метеорологических станциях:

Погода в Ubaydah Bin Al Jarrah (Ирак) (45 км)
Погода в Rifai (Ирак) (50 км)
Погода в Ali Al-Gharbi (Ирак) (71 км)
Погода в Diwaniya (Ирак) (103 км)
Погода в Badrah (Ирак) (104 км)
Погода в Amarah (Ирак) (111 км)
Погода в Samawah (Ирак) (122 км)
Погода в Nasiriya (Ирак) (122 км)
Погода в Azizyah (Ирак) (124 км)
Погода в Hella (Ирак) (154 км)

Пояснения к столбцам:

Ветер - указаны скорость ветра в м/с - средняя за 10 мин, порывы в срок и между сроками (в фигурных скобках) и направление, откуда дует ветер: С - северный, СВ - северо-восточный, В - восточный, ЮВ - юго-восточный, Ю - южный, ЮЗ - юго-западный, З - западный, СЗ - северо-западный.
Видимость - горизонтальная дальность видимости в метрах или километрах. При видимости от 1 до 10 км при отсутствии осадков обычно наблюдается дымка, при ухудшении видимости до 1 км и менее - туман. В сухую погоду видимость может ухудшаться дымом, пылью или мглою.
Явления - указаны атмосферные явления, наблюдавшиеся в срок или в последний час перед сроком; фигурными скобками обозначены явления, наблюдавшиеся между сроками (за 1-3 часа до срока); квадратными скобками обозначены град или гололедные отложения с указанием их диаметра в мм.
Облачность - указаны через наклонную черту общая и нижняя облачность в баллах и высота нижней границы облаков в метрах; квадратными скобками обозначены формы облаков: Ci - перистые, Cs - перисто-слоистые, Cc - перисто-кучевые, Ac - высококучевые, As - высокослоистые, Sc - слоисто-кучевые, Ns - слоисто-дождевые, Cu - кучевые, Cb - кучево-дождевые. Подробнее классификацию облаков см. в Атласе облаков (PDF).
T - Температура воздуха - температура, измеренная на высоте 2 м над землей.
Td - Температура точки росы - температура, при понижении до которой содержащийся в воздухе водяной пар достигнет насыщения.
f - Относительная влажность воздуха - влажноcть воздуха, измеренная на высоте 2 м над землей.
Te - Эффективная температура - температура, которую ощущает одетый по сезону человек в тени. Характеристика душности погоды. При расчете учитывается влияние влажности воздуха и скорости ветра на теплоощущения человека.
Tes - Эффективная температура на солнце - температура, которую ощущает человек, с поправкой на солнечный нагрев. Характеристика знойности погоды. Зависит от высоты солнца над горизонтом, облачности и скорости ветра. Ночью, в пасмурную погоду, а также при ветре 12 м/с и более поправка равна нулю.
P - Атмосферное давление - приведенное к уровню моря атмосферное давление.
Po - Атмосферное давление - измеренное на уровне метеостанции атмосферное давление.
Tmin - Минимальная температура - минимум температуры воздуха на высоте 2 м над землей.
Tmax - Максимальная температура - максимум температуры воздуха на высоте 2 м над землей.
R - Количество осадков - Количество выпавших осадков за период времени, мм. При наведении курсора мыши на число - период времени, за который выпало указанное количество осадков.
R24 - Количество осадков - Количество выпавших осадков за 24 часа, мм.
S - Снежный покров - Высота снежного покрова, см. При наведении курсора мыши на число - состояние снежного покрова и степень покрытия местности в баллах.